Weather History for KFDR - January, 2014

Change the Weather History Date:

Tuesday, January 21, 2014

  Actual Average Record
Temperature  
Mean Temperature 36 °F -  
Max Temperature 48 °F - - ()
Min Temperature 24 °F - - ()
Degree Days  
Heating Degree Days 29    
Moisture  
Dew Point 14 °F    
Average Humidity 41    
Maximum Humidity 65    
Minimum Humidity 27    
Precipitation  
Precipitation 0.00 in - - ()
Sea Level Pressure  
Sea Level Pressure 30.30 in    
Wind  
Wind Speed 12 mph (NE)    
Max Wind Speed 18 mph    
Max Gust Speed -    
Visibility 10 miles    
Events      
T = Trace of Precipitation, MM = Missing Value Source: NWS Daily Summary

Daily Weather History Graph

Daily Weather History Graph

Search for Another Location

Airport or City:

Trip Planner

Search our weather history database for the weather conditions in past years. The results will help you decide how hot, cold, wet, or windy it might be!

Date:

Astronomy

Jan. 21, 2014 Rise Set
Actual Time 7:39 AM CST 5:55 PM CST
Civil Twilight 7:12 AM CST 6:21 PM CST
Nautical Twilight 6:42 AM CST 6:52 PM CST
Astronomical Twilight 6:12 AM CST 7:22 PM CST
Moon 11:12 PM CST (1/21) 10:25 AM CST (1/21)
Length of Visible Light 11h 08m
Length of Day
10h 15m
Waning Gibbous, 74% of the Moon is Illuminated
Jan 21
Waning Gibbous
Jan 23
Last Quarter
Jan 30
New
Feb 6
First Quarter
Feb 14
Full

Hourly Weather History & Observations

Time (CST) Temp. Windchill Dew Point Humidity Pressure Visibility Wind Dir Wind Speed Gust Speed Precip Events Conditions
12:53 AM 45.0 °F 37.6 °F 14.0 °F 29% 30.31 in 10.0 mi North 17.3 mph - N/A   Clear
1:53 AM 41.0 °F 33.1 °F 15.1 °F 35% 30.32 in 10.0 mi North 15.0 mph - N/A   Clear
2:53 AM 37.9 °F 29.6 °F 16.0 °F 41% 30.35 in 10.0 mi North 13.8 mph - N/A   Clear
3:53 AM 35.1 °F 24.8 °F 16.0 °F 46% 30.38 in 10.0 mi North 17.3 mph - N/A   Clear
4:53 AM 34.0 °F 23.8 °F 16.0 °F 48% 30.41 in 10.0 mi North 16.1 mph - N/A   Clear
5:53 AM 30.9 °F 21.7 °F 15.1 °F 52% 30.43 in 10.0 mi North 11.5 mph - N/A   Clear
6:53 AM 28.0 °F 17.5 °F 15.1 °F 58% 30.45 in 10.0 mi North 12.7 mph - N/A   Clear
7:53 AM 24.1 °F 13.7 °F 14.0 °F 65% 30.48 in 10.0 mi North 10.4 mph - N/A   Clear
8:53 AM 30.9 °F 19.1 °F 10.0 °F 42% 30.48 in 10.0 mi North 18.4 mph - N/A   Clear
9:53 AM 33.1 °F 22.6 °F 10.0 °F 38% 30.49 in 10.0 mi NNE 16.1 mph - N/A   Clear
10:53 AM 35.1 °F 26.9 °F 8.1 °F 33% 30.47 in 10.0 mi North 11.5 mph - N/A   Clear
11:53 AM 37.0 °F 34.5 °F 9.0 °F 31% 30.43 in 10.0 mi Variable 3.5 mph - N/A   Clear
12:53 PM 39.9 °F - 10.0 °F 29% 30.35 in 10.0 mi Calm Calm - N/A   Clear
1:53 PM 42.1 °F - 10.9 °F 28% 30.29 in 10.0 mi Calm Calm - N/A   Clear
2:53 PM 44.1 °F 41.5 °F 12.0 °F 27% 30.25 in 10.0 mi South 4.6 mph - N/A   Clear
3:53 PM 46.9 °F - 15.1 °F 28% 30.21 in 10.0 mi SSW 8.1 mph - N/A   Clear
4:53 PM 48.0 °F - 16.0 °F 28% 30.19 in 10.0 mi South 10.4 mph - N/A   Clear
5:53 PM 43.0 °F 38.2 °F 17.1 °F 35% 30.17 in 10.0 mi South 8.1 mph - N/A   Clear
6:53 PM 37.0 °F 30.4 °F 15.1 °F 41% 30.16 in 10.0 mi ESE 9.2 mph - N/A   Clear
7:53 PM 33.1 °F 25.5 °F 15.1 °F 48% 30.14 in 10.0 mi ESE 9.2 mph - N/A   Clear
8:53 PM 33.1 °F 24.9 °F 15.1 °F 48% 30.12 in 10.0 mi SE 10.4 mph - N/A   Clear
9:53 PM 32.0 °F 25.6 °F 15.1 °F 50% 30.10 in 10.0 mi SE 6.9 mph - N/A   Clear
10:53 PM 28.9 °F 19.8 °F 15.1 °F 56% 30.10 in 10.0 mi NE 10.4 mph - N/A   Clear
11:53 PM 28.9 °F 20.4 °F 15.1 °F 56% 30.09 in 10.0 mi ENE 9.2 mph - N/A   Clear